Regional Weather Roundup
Issued by NWS

Home | Current Version | Previous Version | Graphics & Text | Print | Product List | Glossary On
Versions: 1 2 3 4 5 6 7 8 9 10 11 12 13 14 15 16 17 18 19 20 21 22 23 24 25 26 27 28 29 30 31 32 33 34 35 36 37 38 39 40 41 42 43 44 45 46 47 48 49 50
000
ASUS43 KLMK 230802
RWRKY
KENTUCKY REGIONAL WEATHER ROUNDUP
NATIONAL WEATHER SERVICE LOUISVILLE KY
400 AM EDT SAT MAY 23 2015

NOTE "FAIR" INDICATES FEW OR NO CLOUDS BELOW 12,000 FEET
WITH NO SIGNIFICANT WEATHER AND/OR OBSTRUCTIONS TO VISIBILITY.

KYZ001>023-026-027-061>063-070>075-230900-
WESTERN AND SOUTH CENTRAL KENTUCKY

CITY           SKY/WX    TMP DP  RH WIND       PRES   REMARKS
PADUCAH        MOCLDY    58  54  86 CALM      30.26R
HENDERSON      CLOUDY    57  54  88 CALM      30.26S
OWENSBORO      MOCLDY    59  55  86 CALM      30.28S
HOPKINSVILLE   CLOUDY    57  52  81 N5        30.28R HAZE
BOWLING GREEN  MOCLDY    51  48  89 CALM      30.29S
GLASGOW        NOT AVBL
$$

KYZ024-025-028>034-038-045-046-053-230900-
NORTH CENTRAL KENTUCKY

CITY           SKY/WX    TMP DP  RH WIND       PRES   REMARKS
LOUISVILLE/SDF MOCLDY    58  51  78 SE5       30.28F
LOUISVILLE/LOU MOCLDY    56  50  80 CALM      30.29S
FORT KNOX      CLOUDY    52  49  90 CALM      30.28R
$$

KYZ035>037-039>044-047>052-055>060-089>105-230900-
NORTHEAST KENTUCKY

CITY           SKY/WX    TMP DP  RH WIND       PRES   REMARKS
LEXINGTON      CLEAR     50  45  83 SE3       30.31R
COVINGTON      MOCLDY    53  47  79 CALM      30.29S
FRANKFORT      CLEAR     50  46  86 CALM      30.29S
$$

KYZ054-064>069-076>088-106>120-230900-
SOUTHEAST KENTUCKY

CITY           SKY/WX    TMP DP  RH WIND       PRES   REMARKS
JACKSON        CLEAR     53  46  77 S3        30.32S
LONDON         CLEAR     48  43  82 CALM      30.32R
SOMERSET       NOT AVBL
MIDDLESBORO    NOT AVBL
MONTICELLO     MOSUNNY   47  47 100 CALM      30.34R
$$




USA.gov is the U.S. government's official web portal to all federal, state and local government web resources and services.